Powrót do katalogu

STARLINK-37926

AktywnyŁącznośćSSO
NORAD 69695·PAYLOAD·🇺🇸 United States

Wystrzelony Jun 25, 2026 z Vandenberg Space Force Base

Loading…

Następne Przeloty (najbliższe 24 godziny)

TLE

ŚwieżeSource: CelesTrak SupGP

Epoka: Sep 14, 2026, 22:46 UTC

1 69695C 26145U   26257.94909722  .00091446  00000+0  28393-2 0  2574
2 69695  97.2846 104.7297 0001662  92.9166 312.6345 15.33385954    12

Śledź STARLINK-37926 w czasie rzeczywistym z AllMySat

Download on the App Store